Find Starlink 35459

NORAD ID: 65856 Int'l Des: 2025-223 Owner: SPXS Country: US Constellation: starlink operational
LEOCIRCULAR

Live Position

Loading 3D Globe...

About Starlink 35459

Description loading...

Upcoming Passes

Passes for default location (London). Set your location on the main map for personalized predictions.

Altitude History

Loading altitude history...

Two-Line Element Set

1 65856U 25223C 26104.35693823 .00009545 00000-0 33393-3 0 9993
2 65856 53.1573 128.7067 0001367 86.8664 273.2493 15.30203348 29664
Epoch: Apr 14, 2026 • Age: 18 hours

Current Status

Altitude 475.9 km
Velocity 7.63 km/s
Sub-Earth Point 27.46°N, 42.59°E
Launch Date Oct 3, 2025
Age 0.5 years
Type internet

Technical Details

Classification Payload
Mass 575.00 kg
Dry Mass 530.00 kg
Total Mass 575.00 kg
Length 0.30 m
Diameter 4.10 m
Span 29.00 m
Shape Box + pan
Manufacturer SPXS
Bus Type Starlink V2MO
Phase Status In Orbit
Owner/State SPXS/US

Most Searched